Regional Weather Roundup
Issued by NWS

Home | Current Version | Previous Version | Text Only | Print | Product List | Glossary Off
Versions: 1 2 3 4 5 6 7 8 9 10 11 12 13 14 15 16 17 18 19 20 21 22 23 24 25 26 27 28 29 30 31 32 33 34 35 36 37 38 39 40 41 42 43 44 45 46 47 48 49 50

000
ASUS43 KMKX 221700
RWRWI

WISCONSIN REGIONAL WEATHER ROUNDUP
NATIONAL WEATHER SERVICE MILWAUKEE/SULLIVAN WI
1100 AM CST WED FEB 22 2017

NOTE: "FAIR" INDICATES FEW OR NO CLOUDS BELOW 12,000 FEET WITH NO
SIGNIFICANT WEATHER AND/OR OBSTRUCTIONS TO VISIBILITY.

WIZ001-002-006>008-014>016-023>028-221800-
NORTHWEST WISCONSIN

CITY           SKY/WX    TMP DP  RH WIND       PRES   REMARKS
SUPERIOR ARPT  CLOUDY    40  37  90 CALM      29.62F
ASHLAND        CLOUDY    45  38  76 N8        29.62F
HAYWARD        LGT RAIN  44  41  89 CALM      29.61R
SIREN          LGT RAIN  40  39  98 S6        29.62R VSB 1/2
CUMBERLAND     CLOUDY    41  39  93 CALM      29.60R
RICE LAKE      PTSUNNY   45  40  84 CALM      29.62R
CHETEK         PTSUNNY   48  40  75 N8        29.60R
LADYSMITH      MOSUNNY   47  40  74 CALM      29.61S
EAU CLAIRE     NOT AVBL
MENOMONIE      MOSUNNY   49  40  70 CALM      29.60F
NEW RICHMOND   PTSUNNY   46  39  77 CALM      29.61R
OSCEOLA        CLOUDY    43  43 100 CALM      29.63F
$$

WIZ003>005-009-010-017-018-221800-
NORTH CENTRAL WISCONSIN

CITY           SKY/WX    TMP DP  RH WIND       PRES   REMARKS
MANITOWISH WTR CLOUDY    46  42  84 CALM      29.58F
ARBOR VITAE    MOSUNNY   47  39  74 NE3         N/A
WOODRUFF       MOSUNNY   47  39  74 NE3         N/A
RHINELANDER    CLOUDY    51  40  65 SW3       29.58F
EAGLE RIVER    MOSUNNY   47  37  66 N3        29.58F
LAND O LAKES   CLOUDY    48  39  70 CALM      29.59F
PHILLIPS       CLOUDY    47  39  76 CALM      29.58S
TOMAHAWK       MOSUNNY   49  38  64 CALM      29.60F
MEDFORD        CLOUDY    48  37  65 CALM      29.58F
MERRILL        NOT AVBL
$$

WIZ029-030-035-036-043>047-221800-
CENTRAL WISCONSIN

CITY           SKY/WX    TMP DP  RH WIND       PRES   REMARKS
WAUSAU         SUNNY     53  37  54 CALM      29.58F
MOSINEE        PTSUNNY   52  39  62 SW6       29.61F
MARSHFIELD     CLOUDY    51  37  58 SW5       29.58F
STEVENS POINT  MOSUNNY   52  37  56 CALM      29.61S
WAUPACA        SUNNY     63  42  45 SW8       29.60F
WAUTOMA        NOT AVBL
WISC RAPIDS    MOSUNNY   59  37  44 W8        29.60F
CAMP DOUGLAS   NOT AVBL
$$

WIZ011>013-019>022-031-037>040-048>050-221800-
NORTHEAST WISCONSIN

CITY           SKY/WX    TMP DP  RH WIND       PRES   REMARKS
ANTIGO         SUNNY     50  38  64 CALM      29.61F
SHAWANO        PTSUNNY   51  43  75 N3        29.62R
OCONTO         PTSUNNY   52  43  70 SW3       29.61F
STURGEON BAY   CLOUDY    53  44  71 SE9       29.62
GREEN BAY      MOSUNNY   56  48  74 SW12      29.62F
MANITOWOC      NOT AVBL
APPLETON       PTSUNNY   55  45  67 SW15      29.61S
CLINTONVILLE   MOSUNNY   54  43  66 S3        29.61S
OSHKOSH        SUNNY     58  48  69 SW16G29   29.60F
$$

WIZ032>034-041-042-053>061-221800-
SOUTHWEST WISCONSIN

CITY           SKY/WX    TMP DP  RH WIND       PRES   REMARKS
LA CROSSE      PTSUNNY   55  36  48 S7        29.60F
SPARTA         CLOUDY    56  37  47 W5        29.60F
VIROQUA        PTSUNNY   55  39  54 SW12      29.60F
BOSCOBEL       SUNNY     63  40  42 SW12      29.62F
PRAIRIE DU CHI MOSUNNY   60  38  43 S7        29.62F
PLATTEVILLE    SUNNY     60  51  72 S16       29.67F
$$

WIZ056-057-062-063-064-067-068-221800-
SOUTH CENTRAL WISCONSIN

CITY           SKY/WX    TMP DP  RH WIND       PRES   REMARKS
REEDSBURG      SUNNY     61  44  55 SW14G24   29.61F
BARABOO/DELLS  SUNNY     59  42  54 SW15G23   29.61F
LONE ROCK      NOT AVBL
MINERAL POINT  SUNNY     59  50  72 S16G22    29.66F
MADISON        MOSUNNY   59  48  67 S14G23    29.65F
MIDDLETON      SUNNY     63  48  58 SW13      29.65F
WATERTOWN      SUNNY     59  52  77 S13G23    29.67F
MONROE         CLOUDY    54  52  94 S18       29.68F FOG
JANESVILLE     MOSUNNY   63  54  72 SW17      29.70F
$$

WIZ051-052-058>065-066-070>072-221800-
SOUTHEAST WISCONSIN

CITY           SKY/WX    TMP DP  RH WIND       PRES   REMARKS
MILWAUKEE      MOSUNNY   61  52  72 SW18      29.69F
WAUKESHA       SUNNY     57  52  82 SW21G29   29.70S
MILWAUKEE/TIMM SUNNY     61  48  63 SW16G22   29.69F
RACINE         PTSUNNY   60  53  77 SW16G25   29.71F
KENOSHA        MOSUNNY   60  54  80 SW16G25   29.71F
FOND DU LAC    SUNNY     59  48  67 SW20G28   29.62F
SHEBOYGAN      SUNNY     64  48  56 S14       29.64F
WEST BEND      SUNNY     61  50  67 SW17G23   29.66S
JUNEAU         SUNNY     57  50  79 S20G25    29.67F
$$

LSZ147-162-221800-
LAKE SUPERIOR

STATION/POSITION TIME  TEMP    WIND        PRES    WAVE
                       AIR SEA DIR/SP/G            HT/PER
                 (UTC) (F)     (DEG/KT/KT) (MB)    (FT/S)
DEVILS ISLAND    1600   38     100/  5/  6 1004.1F
PORT WING        1640   36      CALM  /  2 1003.7S
SAXON HARBOR     1640   36      40/  1/  4 1003.0F
$$

LMZ867-665-643>646-221800-
LAKE MICHIGAN

STATION/POSITION TIME  TEMP    WIND        PRES    WAVE
                       AIR SEA DIR/SP/G            HT/PER
                 (UTC) (F)     (DEG/KT/KT) (MB)    (FT/S)
CHAMBERS ISLAND  1640   49     170/  4/ 11 1002.7S
NORTHPORT PIER   1640   40     200/  3/ 10 1004.1R
SISTER BAY       1635   46     120/  2/  6   N/A
KEWAUNEE LAKESHO 1630   39     320/  3/  8 1003.6R
SHEBOYGAN LAKESH 1600   43     180/ 16/ 18 1004.3F
PORT WASHINGTON  1640   49     150/  7/ 10 1005.8S
MILWAUKEE LAKESH 1630   55     230/ 14/ 16   N/A
KENOSHA   LAKESH 1600   57     220/ 12/ 18 1007.1
$$

TC  - TEMPERATURE IN CELSIUS
VSB - VISIBILITY IN STATUTE MILES
WCI - WIND CHILL INDEX
HX  - HEAT INDEX




USA.gov is the U.S. government's official web portal to all federal, state and local government web resources and services.